Time,TemperatureF,DewpointF,PressureIn,WindDirection,WindDirectionDegrees,WindSpeedMPH,WindSpeedGustMPH,Humidity,HourlyPrecipIn,Conditions,Clouds,dailyrainin,SoftwareType,DateUTC
2013-02-07 00:11:00,59.0,57.0,-100.00,SE,135,3.0,8.0,93,0.00,,,0.40,,2013-02-07 06:11:00,
2013-02-07 00:22:00,59.0,57.0,-100.00,SE,135,3.0,8.0,93,0.00,,,0.40,,2013-02-07 06:22:00,
2013-02-07 00:32:00,59.0,57.0,-100.00,SE,135,3.0,8.0,93,0.00,,,0.40,,2013-02-07 06:32:00,
2013-02-07 00:43:00,59.0,57.0,-100.00,SE,135,3.0,8.0,93,0.00,,,0.40,,2013-02-07 06:43:00,
2013-02-07 01:11:00,58.0,57.0,-100.00,ESE,105,2.0,5.0,95,0.00,,,0.40,,2013-02-07 07:11:00,
2013-02-07 01:22:00,58.0,57.0,-100.00,ESE,105,2.0,5.0,95,0.00,,,0.40,,2013-02-07 07:22:00,
2013-02-07 01:32:00,58.0,57.0,-100.00,ESE,105,2.0,5.0,95,0.00,,,0.40,,2013-02-07 07:32:00,
2013-02-07 01:42:00,58.0,57.0,-100.00,ESE,105,2.0,5.0,95,0.00,,,0.40,,2013-02-07 07:42:00,
2013-02-07 02:11:00,55.0,54.0,-100.00,WNW,286,0.0,0.0,97,0.00,,,0.40,,2013-02-07 08:11:00,
2013-02-07 02:21:00,55.0,54.0,-100.00,WNW,286,0.0,0.0,97,0.00,,,0.40,,2013-02-07 08:21:00,
2013-02-07 02:32:00,55.0,54.0,-100.00,WNW,286,0.0,0.0,97,0.00,,,0.40,,2013-02-07 08:32:00,
2013-02-07 02:42:00,55.0,54.0,-100.00,WNW,286,0.0,0.0,97,0.00,,,0.40,,2013-02-07 08:42:00,
2013-02-07 03:11:00,53.0,52.0,-100.00,NNW,346,1.0,2.0,98,0.00,,,0.40,,2013-02-07 09:11:00,
2013-02-07 03:21:00,53.0,52.0,-100.00,NNW,346,1.0,2.0,98,0.00,,,0.40,,2013-02-07 09:21:00,
2013-02-07 03:32:00,53.0,52.0,-100.00,NNW,346,1.0,2.0,98,0.00,,,0.40,,2013-02-07 09:32:00,
2013-02-07 03:41:00,53.0,52.0,-100.00,NNW,346,1.0,2.0,98,0.00,,,0.40,,2013-02-07 09:41:00,
2013-02-07 04:11:00,54.0,54.0,-100.00,NW,308,1.0,4.0,99,0.00,,,0.40,,2013-02-07 10:11:00,
2013-02-07 04:22:00,54.0,54.0,-100.00,NW,308,1.0,4.0,99,0.00,,,0.40,,2013-02-07 10:22:00,
2013-02-07 04:32:00,54.0,54.0,-100.00,NW,308,1.0,4.0,99,0.00,,,0.40,,2013-02-07 10:32:00,
2013-02-07 04:42:00,54.0,54.0,-100.00,NW,308,1.0,4.0,99,0.00,,,0.40,,2013-02-07 10:42:00,
2013-02-07 05:11:00,56.0,56.0,-100.00,North,350,0.0,0.0,99,0.00,,,0.40,,2013-02-07 11:11:00,
2013-02-07 05:23:00,56.0,56.0,-100.00,North,350,0.0,0.0,99,0.00,,,0.40,,2013-02-07 11:23:00,
2013-02-07 05:32:00,56.0,56.0,-100.00,North,350,0.0,0.0,99,0.00,,,0.40,,2013-02-07 11:32:00,
2013-02-07 05:44:00,56.0,56.0,-100.00,North,350,0.0,0.0,99,0.00,,,0.40,,2013-02-07 11:44:00,
2013-02-07 06:11:00,56.0,56.0,-100.00,WNW,290,0.0,0.0,99,0.00,,,0.40,,2013-02-07 12:11:00,
2013-02-07 06:22:00,56.0,56.0,-100.00,WNW,290,0.0,0.0,99,0.00,,,0.40,,2013-02-07 12:22:00,
2013-02-07 06:32:00,56.0,56.0,-100.00,WNW,290,0.0,0.0,99,0.00,,,0.40,,2013-02-07 12:32:00,
2013-02-07 06:42:00,56.0,56.0,-100.00,WNW,290,0.0,0.0,99,0.00,,,0.40,,2013-02-07 12:42:00,
2013-02-07 07:12:00,56.0,56.0,-100.00,WNW,296,0.0,0.0,99,0.00,,,0.40,,2013-02-07 13:12:00,
2013-02-07 07:22:00,56.0,56.0,-100.00,WNW,296,0.0,0.0,99,0.00,,,0.40,,2013-02-07 13:22:00,
2013-02-07 07:32:00,56.0,56.0,-100.00,WNW,296,0.0,0.0,99,0.00,,,0.40,,2013-02-07 13:32:00,
2013-02-07 07:42:00,56.0,56.0,-100.00,WNW,296,0.0,0.0,99,0.00,,,0.40,,2013-02-07 13:42:00,
2013-02-07 08:11:00,56.0,56.0,-100.00,SE,126,0.0,0.0,99,0.00,,,0.40,,2013-02-07 14:11:00,
2013-02-07 08:22:00,56.0,56.0,-100.00,SE,126,0.0,0.0,99,0.00,,,0.40,,2013-02-07 14:22:00,
2013-02-07 08:32:00,56.0,56.0,-100.00,SE,126,0.0,0.0,99,0.00,,,0.40,,2013-02-07 14:32:00,
2013-02-07 08:42:00,56.0,56.0,-100.00,SE,126,0.0,0.0,99,0.00,,,0.40,,2013-02-07 14:42:00,
2013-02-07 09:11:00,58.0,58.0,-100.00,West,263,0.0,0.0,99,0.00,,,0.40,,2013-02-07 15:11:00,
2013-02-07 09:22:00,58.0,58.0,-100.00,West,263,0.0,0.0,99,0.00,,,0.40,,2013-02-07 15:22:00,
2013-02-07 09:32:00,58.0,58.0,-100.00,West,263,0.0,0.0,99,0.00,,,0.40,,2013-02-07 15:32:00,
2013-02-07 09:42:00,58.0,58.0,-100.00,West,263,0.0,0.0,99,0.00,,,0.40,,2013-02-07 15:42:00,
2013-02-07 10:11:00,60.0,59.0,-100.00,North,355,0.0,0.0,96,0.00,,,-99.99,,2013-02-07 16:11:00,
2013-02-07 10:21:00,60.0,59.0,-100.00,North,355,0.0,0.0,96,0.00,,,-99.99,,2013-02-07 16:21:00,
2013-02-07 10:32:00,60.0,59.0,-100.00,North,355,0.0,0.0,96,0.00,,,-99.99,,2013-02-07 16:32:00,
2013-02-07 10:42:00,60.0,59.0,-100.00,North,355,0.0,0.0,96,0.00,,,-99.99,,2013-02-07 16:42:00,
2013-02-07 11:11:00,61.0,55.0,-100.00,WNW,283,2.0,4.0,82,0.00,,,0.40,,2013-02-07 17:11:00,
2013-02-07 11:21:00,61.0,55.0,-100.00,WNW,283,2.0,4.0,82,0.00,,,0.40,,2013-02-07 17:21:00,
2013-02-07 11:32:00,61.0,55.0,-100.00,WNW,283,2.0,4.0,82,0.00,,,0.40,,2013-02-07 17:32:00,
2013-02-07 11:43:00,61.0,55.0,-100.00,WNW,283,2.0,4.0,82,0.00,,,0.40,,2013-02-07 17:43:00,
2013-02-07 12:11:00,62.0,56.0,-100.00,West,259,2.0,3.0,80,0.00,,,0.40,,2013-02-07 18:11:00,
2013-02-07 12:23:00,62.0,56.0,-100.00,West,259,2.0,3.0,80,0.00,,,0.40,,2013-02-07 18:23:00,
2013-02-07 12:32:00,62.0,56.0,-100.00,West,259,2.0,3.0,80,0.00,,,0.40,,2013-02-07 18:32:00,
2013-02-07 12:42:00,62.0,56.0,-100.00,West,259,2.0,3.0,80,0.00,,,0.40,,2013-02-07 18:42:00,
2013-02-07 13:11:00,63.0,56.0,-100.00,WNW,289,4.0,7.0,78,0.00,,,0.40,,2013-02-07 19:11:00,
2013-02-07 13:22:00,63.0,56.0,-100.00,WNW,289,4.0,7.0,78,0.00,,,0.40,,2013-02-07 19:22:00,
2013-02-07 13:32:00,63.0,56.0,-100.00,WNW,289,4.0,7.0,78,0.00,,,0.40,,2013-02-07 19:32:00,
2013-02-07 13:42:00,63.0,56.0,-100.00,WNW,289,4.0,7.0,78,0.00,,,0.40,,2013-02-07 19:42:00,
2013-02-07 14:11:00,65.0,56.0,-100.00,West,268,3.0,9.0,74,0.00,,,0.40,,2013-02-07 20:11:00,
2013-02-07 14:22:00,65.0,56.0,-100.00,West,268,3.0,9.0,74,0.00,,,0.40,,2013-02-07 20:22:00,
2013-02-07 14:32:00,65.0,56.0,-100.00,West,268,3.0,9.0,74,0.00,,,0.40,,2013-02-07 20:32:00,
2013-02-07 14:42:00,65.0,56.0,-100.00,West,268,3.0,9.0,74,0.00,,,0.40,,2013-02-07 20:42:00,
2013-02-07 15:11:00,68.0,56.0,-100.00,West,270,3.0,7.0,66,0.00,,,0.37,,2013-02-07 21:11:00,
2013-02-07 15:21:00,68.0,56.0,-100.00,West,270,3.0,7.0,66,0.00,,,0.37,,2013-02-07 21:21:00,
2013-02-07 15:32:00,68.0,56.0,-100.00,West,270,3.0,7.0,66,0.00,,,0.37,,2013-02-07 21:32:00,
2013-02-07 15:42:00,68.0,56.0,-100.00,West,270,3.0,7.0,66,0.00,,,0.37,,2013-02-07 21:42:00,
2013-02-07 16:11:00,70.0,57.0,-100.00,SW,225,2.0,5.0,64,0.00,,,0.36,,2013-02-07 22:11:00,
2013-02-07 16:21:00,70.0,57.0,-100.00,SW,225,2.0,5.0,64,0.00,,,0.36,,2013-02-07 22:21:00,
2013-02-07 16:32:00,70.0,57.0,-100.00,SW,225,2.0,5.0,64,0.00,,,0.36,,2013-02-07 22:32:00,
2013-02-07 16:42:00,70.0,57.0,-100.00,SW,225,2.0,5.0,64,0.00,,,0.36,,2013-02-07 22:42:00,
2013-02-07 17:11:00,69.0,57.0,-100.00,South,183,2.0,5.0,66,0.00,,,0.31,,2013-02-07 23:11:00,
2013-02-07 17:21:00,69.0,57.0,-100.00,South,183,2.0,5.0,66,0.00,,,0.31,,2013-02-07 23:21:00,
2013-02-07 17:32:00,69.0,57.0,-100.00,South,183,2.0,5.0,66,0.00,,,0.31,,2013-02-07 23:32:00,
2013-02-07 17:42:00,69.0,57.0,-100.00,South,183,2.0,5.0,66,0.00,,,0.31,,2013-02-07 23:42:00,
2013-02-07 18:11:00,64.0,59.0,-100.00,WNW,302,0.0,2.0,83,0.00,,,0.25,,2013-02-08 00:11:00,
2013-02-07 18:21:00,64.0,59.0,-100.00,WNW,302,0.0,2.0,83,0.00,,,0.25,,2013-02-08 00:21:00,
2013-02-07 18:32:00,64.0,59.0,-100.00,WNW,302,0.0,2.0,83,0.00,,,0.25,,2013-02-08 00:32:00,
2013-02-07 18:42:00,64.0,59.0,-100.00,WNW,302,0.0,2.0,83,0.00,,,0.25,,2013-02-08 00:42:00,
2013-02-07 19:41:00,59.0,58.0,-100.00,WSW,243,0.0,0.0,95,0.00,,,0.12,,2013-02-08 01:41:00,
2013-02-07 20:11:00,62.0,59.0,-100.00,West,264,1.0,4.0,89,0.00,,,0.03,,2013-02-08 02:11:00,
2013-02-07 20:21:00,62.0,59.0,-100.00,West,264,1.0,4.0,89,0.00,,,0.03,,2013-02-08 02:21:00,
2013-02-07 20:32:00,62.0,59.0,-100.00,West,264,1.0,4.0,89,0.00,,,0.03,,2013-02-08 02:32:00,
2013-02-07 20:42:00,62.0,59.0,-100.00,West,264,1.0,4.0,89,0.00,,,0.03,,2013-02-08 02:42:00,
2013-02-07 21:12:00,61.0,58.0,-100.00,WSW,255,0.0,2.0,89,0.00,,,0.00,,2013-02-08 03:12:00,
2013-02-07 21:22:00,61.0,58.0,-100.00,WSW,255,0.0,2.0,89,0.00,,,0.00,,2013-02-08 03:22:00,
2013-02-07 21:32:00,61.0,58.0,-100.00,WSW,255,0.0,2.0,89,0.00,,,0.00,,2013-02-08 03:32:00,
2013-02-07 21:41:00,61.0,58.0,-100.00,WSW,255,0.0,2.0,89,0.00,,,0.00,,2013-02-08 03:41:00,
2013-02-07 22:11:00,61.0,59.0,-100.00,SE,144,0.0,0.0,93,0.00,,,-99.99,,2013-02-08 04:11:00,
2013-02-07 22:21:00,61.0,59.0,-100.00,SE,144,0.0,0.0,93,0.00,,,-99.99,,2013-02-08 04:21:00,
2013-02-07 22:32:00,61.0,59.0,-100.00,SE,144,0.0,0.0,93,0.00,,,-99.99,,2013-02-08 04:32:00,
2013-02-07 22:42:00,61.0,59.0,-100.00,SE,144,0.0,0.0,93,0.00,,,-99.99,,2013-02-08 04:42:00,
2013-02-07 23:12:00,58.0,57.0,-100.00,NNW,342,0.0,2.0,96,0.00,,,0.00,,2013-02-08 05:12:00,
2013-02-07 23:22:00,58.0,57.0,-100.00,NNW,342,0.0,2.0,96,0.00,,,0.00,,2013-02-08 05:22:00,
2013-02-07 23:32:00,58.0,57.0,-100.00,NNW,342,0.0,2.0,96,0.00,,,0.00,,2013-02-08 05:32:00,
2013-02-07 23:42:00,58.0,57.0,-100.00,NNW,342,0.0,2.0,96,0.00,,,0.00,,2013-02-08 05:42:00,